Regional Weather Roundup
Issued by NWS Lake Charles, LA

Home | Current Version | Previous Version | Text Only | Print | Product List | Glossary On
Versions: 1 2 3 4 5 6 7 8 9 10 11 12 13 14 15 16 17 18 19 20 21 22 23 24 25 26 27
000
ASUS44 KLCH 160710
RWRLCH
RWRLCH
REGIONAL WEATHER ROUNDUP
NATIONAL WEATHER SERVICE LAKE CHARLES LA
200 AM CDT WED APR 16 2014

Note: "fair" indicates few or no clouds below 12,000 feet with no
significant weather and/or obstructions to visibility.


ACROSS SOUTHEAST TEXAS

CITY           SKY/WX    TMP DP  RH WIND       PRES   REMARKS
BEAUMONT       CLEAR     45  36  70 E5        30.17F
BEAUMONT CITY  FAIR      43  37  80 CALM      30.18S
ORANGE         SUNNY     43  38  82 CALM      30.20S
JASPER         CLEAR     37  37  99 CALM      30.20F
$$

ACROSS CENTRAL LOUISIANA

CITY           SKY/WX    TMP DP  RH WIND       PRES   REMARKS
LEESVILLE      CLEAR     42  35  76 E3        30.18S
FULLERTON      FAIR      42  37  82 CALM      30.17S
ALEXANDRIA INT CLEAR     42  36  79 NE5       30.19S
ESLER FIELD    CLEAR     41  36  82 E3        30.20S
DERIDDER       FAIR      41  38  88 CALM      30.20F
OAKDALE        SUNNY     36  35  96 CALM      30.20S FOG
OPELOUSAS      FAIR      42  34  73 CALM      30.19S
$$

ACROSS SOUTHWEST AND SOUTH CENTRAL LOUISIANA

CITY           SKY/WX    TMP DP  RH WIND       PRES   REMARKS
SULPHUR        SUNNY     46  37  73 E5        30.19F
LAKE CHARLES   CLEAR     44  36  73 E5        30.19F
CHENNAULT INT  CLEAR     45  37  73 CALM      30.20S
CAMERON PHI    SUNNY     45  37  76 E8        30.19F
DEQUINCY       FAIR      41  36  83 CALM      30.19F
JENNINGS       FAIR      44  36  73 E5        30.19F
LAFAYETTE      CLEAR     44  35  70 NE7       30.20R
NEW IBERIA     CLEAR     46  34  62 NE8       30.20S
ABBEVILLE      FAIR      43  15  32 CALM      30.20S
PATTERSON      CLEAR     45  34  65 NE6       30.21F
SALT POINT       N/A     48  36  63 CALM      30.18S
$$

SELECTED SITES ACROSS THE REGION

CITY           SKY/WX    TMP DP  RH WIND       PRES   REMARKS
HOUSTON BUSH   CLEAR     45  36  70 CALM      30.17S
HOUSTON HOBBY  CLEAR     50  35  56 E5        30.16F
GALVESTON      CLEAR     54  35  48 NE7       30.18F
COLLEGE STAT   CLEAR     45  34  65 CALM      30.15F
CONROE         CLEAR     36  36 100 CALM      30.18S
HUNTSVILLE     CLEAR     41  36  82 CALM      30.16S
LUFKIN         CLEAR     42  36  79 CALM      30.16F
SHREVEPORT     CLEAR     44  36  73 SE7       30.18S
MONROE         CLEAR     42  34  73 E3        30.22F
NATCHEZ MS       N/A     39  32  75 E6        30.19F
BATON ROUGE    CLEAR     43  32  65 NE7       30.19S
N.O. INTL ARPT CLEAR     50  36  58 NE16      30.17S
SLIDELL        CLEAR     44  33  65 N3        30.17S
$$

MARINE REPORTS

STATION/POSITION TIME  TEMP    WIND        PRES    VSBY  WAVE
                       AIR SEA DIR/SP/G                  HT/PER
                 (UTC) (F)     (DEG/KT/KT) (MB)    (MI)  (FT/S)
BUOY 30 S HIGH I 0700   59 66   70/ 14/ 17 1021.1F         2/ 4
SEA RIM ST PARK  0700   47      70/  7/  8 1022.2F
PORT ARTHUR      0700      66   90/  7/ 14 1021.8S
SABINE PASS N    0700   50 63   70/  7/  9 1021.7F
TEXAS POINT      0700   49 63   50/  9/ 12 1021.9F
CALCASIEU PASS   0700   46 62  100/  9/ 10 1023.0S
LK CHARLES BEACH 0700   46 66              1022.9S
MARSH ISLAND     NOT AVBL
FRESH WATER LOCK 0700   46 63   20/  6/  7 1022.0F
AMERADA PASS     0700   47 59   40/  3/  5 1022.0F
$$



USA.gov is the U.S. government's official web portal to all federal, state and local government web resources and services.